Regional Weather Roundup
Issued by NWS

Home | Current Version | Previous Version | Text Only | Print | Product List | Glossary On
Versions: 1 2 3 4 5 6 7 8 9 10 11 12 13 14 15 16 17 18 19 20 21 22 23 24 25 26 27 28 29 30 31 32 33 34 35 36 37 38 39 40 41 42 43 44 45 46 47 48 49 50
000
ASUS43 KBIS 220910
RWRND
NORTH DAKOTA REGIONAL WEATHER ROUNDUP
NATIONAL WEATHER SERVICE EASTERN NORTH DAKOTA/GRAND FORKS ND
400 AM CDT SUN APR 22 2018

  NOTE: "FAIR" INDICATES FEW OR NO CLOUDS BELOW 12,000 FEET WITH NO
  SIGNIFICANT WEATHER AND/OR OBSTRUCTIONS TO VISIBILITY.

NDZ001>003-009>011-017-221000-
...NORTHWEST NORTH DAKOTA...

CITY           SKY/WX    TMP DP  RH WIND       PRES   REMARKS
WILLISTON      MOCLDY    48  28  46 NW12      30.05S
MINOT          FAIR      44  36  73 S13G26    30.08R
MINOT AFB      FAIR      42  36  80 SW18      30.06R
$$

NDZ018>021-031>035-040>046-221000-
...SOUTHWEST NORTH DAKOTA...

CITY           SKY/WX    TMP DP  RH WIND       PRES   REMARKS
BISMARCK       FAIR      39  34  82 S13       30.15F WCI  31
DICKINSON      FAIR      37  35  92 S8        30.08R WCI  31
GARRISON         N/A     39  35  86 S13       30.11F WCI  31
HETTINGER      FAIR      38  34  85 CALM      30.14R
$$

NDZ004>008-012>016-024-026-027-054-221000-
...NORTHEAST NORTH DAKOTA...

CITY           SKY/WX    TMP DP  RH WIND       PRES   REMARKS
GRAND FORKS    FAIR      38  37  97 S10       30.23S WCI  31
GRAND FORKS AF FAIR      38  35  89 S9        30.22S WCI  32
DEVILS LAKE    FAIR      42  31  64 S17       30.16F
$$

NDZ022-023-025-028>030-036>039-047>053-221000-
...SOUTHEAST NORTH DAKOTA...

CITY           SKY/WX    TMP DP  RH WIND       PRES   REMARKS
JAMESTOWN      FAIR      33  31  92 S9        30.21F WCI  25
FARGO          FAIR      42  33  70 S8        30.27S
WAHPETON       FAIR      34  32  93 SE7       30.29F WCI  28
$$




USA.gov is the U.S. government's official web portal to all federal, state and local government web resources and services.